This is the latest recevied weather packets stored in our database for station/object N8QQQ. If no packets are shown the sender has not sent any weather packets the latest 10 day(s).
| Time | Temp. | Humidity | Pressure | Rain* | Wind** | Luminosity | Snow |
|---|---|---|---|---|---|---|---|
| 1777471175 | 3.33° C | 86% | 1016.1 hPa | 0 mm | - | 94 W/m² | - |
| 1777470872 | 2.78° C | 87% | 1016 hPa | 0 mm | - | 83 W/m² | - |
| 1777470569 | 2.78° C | 87% | 1016 hPa | 0 mm | - | 78 W/m² | - |
| 1777470265 | 2.78° C | 88% | 1016.1 hPa | 0 mm | - | 75 W/m² | - |
| 1777469961 | 2.78° C | 88% | 1016 hPa | 0 mm | - | 75 W/m² | - |
| 1777469657 | 2.22° C | 89% | 1016.2 hPa | 0 mm | - | 82 W/m² | - |
| 1777469353 | 2.22° C | 89% | 1015.9 hPa | 0 mm | - | 76 W/m² | - |
| 1777469049 | 2.22° C | 89% | 1016 hPa | 0 mm | - | 65 W/m² | - |
| 1777468744 | 2.22° C | 89% | 1016.3 hPa | 0 mm | - | 68 W/m² | - |
| 1777468440 | 2.22° C | 89% | 1016.3 hPa | 0 mm | - | 74 W/m² | - |
| 1777468136 | 1.67° C | 90% | 1016.1 hPa | 0 mm | - | 78 W/m² | - |
| 1777467833 | 1.67° C | 91% | 1016.1 hPa | 0 mm | - | 73 W/m² | - |
| 1777467528 | 1.67° C | 93% | 1016.2 hPa | 0 mm | - | 60 W/m² | - |
| 1777467223 | 1.67° C | 95% | 1016.2 hPa | 0 mm | - | 50 W/m² | - |
| 1777466920 | 1.11° C | 96% | 1016.3 hPa | 0 mm | - | 44 W/m² | - |
| 1777466618 | 1.11° C | 98% | 1016 hPa | 0 mm | - | 41 W/m² | - |
| 1777466314 | 1.11° C | 99% | 1016.3 hPa | 0 mm | - | 36 W/m² | - |
| 1777466011 | 0.56° C | 99% | 1016.4 hPa | 0 mm | - | 32 W/m² | - |
| 1777465707 | 0.56° C | 99% | 1016.2 hPa | 0 mm | - | 40 W/m² | - |
| 1777465403 | 0.56° C | 99% | 1016.2 hPa | 0 mm | - | 45 W/m² | - |
| 1777465101 | 0° C | 99% | 1016 hPa | 0 mm | - | 51 W/m² | - |
| 1777464797 | 0° C | 99% | 1016.1 hPa | 0 mm | - | 39 W/m² | - |
| 1777464493 | 0° C | 99% | 1016 hPa | 0 mm | - | 29 W/m² | - |
| 1777464189 | 0° C | 99% | 1015.9 hPa | 0 mm | - | 26 W/m² | - |
| 1777463884 | -0.56° C | 99% | 1016.1 hPa | 0 mm | - | 17 W/m² | - |
* Rain latest hour (hover to see other rain measurements)
** Current wind speed in m/s (hover to see current wind gust speed)